sat.trackr.live / text

‹ back to catalog

BANDWAGON-2 OBJECT S

NORAD 62393 · 2024-247S

PAYLOAD ACTIVE UNKNOWN

§ Identity

Operator
Country
TBD
Launch date
2024-12-21
Launch site
AFWTR
Launch vehicle
Mass (kg)
RCS (m²)

External: N2YO · Heavens-Above · Gunter

§ Orbital elements

Epoch: 2026-06-17T10:24:16.430400Z

Period
88.13 min
Inclination
44.9438°
Eccentricity
0.0004217
Mean motion
16.33986744 rev/d
Perigee alt
179.1 km
Apogee alt
184.6 km
Semi-major
6,560.0 km
B*
1.2024e-3
RAAN
214.8221°
Arg perigee
356.8938°
Mean anomaly
3.1957°
Rev number
8,389

§ Raw data

BANDWAGON-2 OBJECT S1 62393U 24247S   26168.43352350  .08555031  10449-4  12024-2 0  99902 62393  44.9438 214.8221 0004217 356.8938   3.1957 16.33986744 83897

JSON: /api/v1/satellites/62393 · /tle

For live sub-satellite position, see the globe view (requires WebGL).

§ Visibility from observer

Set your observer location to see the next 7 days of passes ≥ 10°. The values pass through the URL so the page stays shareable.

No JS? Fill the form by hand. The geolocation button needs JavaScript.